Wind_Speed
35 36 38 38 38 37 36 35 34 35 35 35 36 36 37 38 38 39 40 40 40 39 39 38 38 37 37 36 36 35 34 33 32 31 30 30 30 30 30 29 30 30 30 30 31 31 31 31 31 31 32 33 35 37 38 37 36 37 37 37 36 35 35 37 38 39 39 40 41 42 42 41 41 41 39 38 37 34 32 32 32 30 29 28 27
37 39 40 40 40 39 38 37 37 37 37 37 37 38 38 38 39 40 41 41 40 40 39 39 38 38 37 37 37 36 36 34 33 32 31 30 30 31 31 30 31 31 31 31 31 32 32 32 31 31 31 32 33 35 37 36 37 37 37 37 37 36 36 37 37 38 39 40 41 43 43 42 42 43 41 38 37 35 34 33 32 32 31 30 29
39 40 41 41 41 40 40 39 39 38 38 39 39 40 40 39 40 40 41 41 40 40 39 39 39 39 38 38 38 38 37 37 35 34 32 31 31 31 31 32 32 33 33 33 33 33 33 33 32 32 31 31 32 33 35 36 37 38 37 37 38 38 38 38 39 39 40 42 43 44 44 42 43 44 42 40 39 37 35 34 34 35 33 31 30
40 41 42 42 42 42 42 41 41 40 40 41 41 41 41 40 40 40 40 41 41 40 40 40 40 40 40 40 39 39 39 38 37 36 34 33 32 32 32 32 33 34 35 35 35 35 35 34 34 33 32 32 32 32 34 36 37 38 37 37 37 38 39 40 40 41 43 46 46 45 45 44 45 45 44 43 42 38 35 34 35 35 34 32 31
41 42 43 43 44 44 44 43 42 42 42 43 43 42 42 41 40 40 40 40 40 40 40 40 40 41 41 41 41 41 40 40 39 39 37 36 35 34 34 33 34 35 36 37 36 36 35 35 35 34 33 33 32 32 35 36 38 40 38 37 37 39 40 41 42 43 43 45 46 46 46 46 46 46 45 45 43 38 35 35 35 35 34 33 33
42 43 43 44 45 45 45 44 44 43 43 43 43 42 42 41 41 41 41 41 41 41 41 41 41 42 42 43 43 43 43 43 42 41 41 40 39 38 37 36 35 36 37 38 38 37 35 35 35 35 33 33 32 32 34 36 40 43 42 39 36 38 41 40 39 38 35 36 41 45 48 47 46 46 46 44 41 39 39 39 37 37 37 35 34
42 43 44 45 46 46 46 45 45 44 44 43 42 41 40 40 40 40 40 41 41 42 42 42 42 43 43 44 44 45 45 45 44 44 43 42 42 41 40 38 37 37 38 39 38 37 36 35 35 36 34 33 32 32 34 37 40 42 45 45 40 36 40 40 36 35 33 33 37 42 47 48 47 47 46 44 42 41 42 41 41 40 38 35 35
43 44 45 46 46 46 45 45 45 45 43 42 41 40 39 39 39 40 40 41 42 43 43 44 44 44 44 45 45 46 46 46 46 45 44 43 43 42 41 40 39 38 38 39 38 38 37 36 35 36 36 34 33 32 32 37 40 40 42 46 42 36 37 37 35 37 37 36 37 41 46 49 49 48 47 46 45 44 44 43 42 41 39 37 38
43 44 45 45 45 45 45 44 44 43 42 41 40 39 39 39 40 41 41 42 42 43 44 45 46 46 46 46 47 47 48 48 48 47 46 45 44 43 43 42 41 39 38 38 39 39 38 37 35 36 36 36 34 33 32 34 38 39 39 42 40 34 31 32 36 40 38 39 43 44 47 50 51 50 49 48 46 44 44 44 44 43 41 39 40
43 44 44 44 44 44 44 43 43 42 41 41 40 40 40 41 41 42 42 42 43 44 45 46 46 47 48 48 49 49 49 49 50 49 49 48 47 46 45 44 44 42 40 39 39 39 39 38 36 36 37 37 35 34 33 33 35 37 38 40 40 38 34 34 39 44 42 44 48 48 50 54 54 52 51 49 46 45 45 45 45 45 43 41 42
42 42 42 43 43 43 43 42 42 41 41 41 41 41 41 41 42 43 43 43 44 45 45 46 47 47 48 49 50 50 50 50 51 51 51 50 50 49 48 47 46 45 43 41 40 39 39 38 37 36 36 37 37 35 33 33 34 36 37 39 42 45 44 39 38 42 45 47 51 52 53 55 54 52 51 49 48 48 48 47 46 46 45 44 43
41 41 41 41 42 41 41 41 41 41 41 41 41 41 41 42 42 43 43 44 45 46 46 47 48 49 49 50 51 52 53 53 53 52 52 52 52 51 50 50 48 47 45 44 42 40 39 39 38 37 37 37 37 36 34 33 33 34 35 38 42 47 49 44 37 37 42 46 49 50 51 52 53 53 51 49 48 49 49 48 47 46 47 47 45
40 40 40 40 40 39 39 40 41 41 41 41 42 42 42 43 43 44 45 46 47 48 49 50 50 51 52 53 53 54 55 55 56 55 55 54 54 53 52 52 51 50 48 46 44 42 40 39 39 38 38 38 38 37 35 34 33 33 34 36 40 44 48 46 40 36 36 39 41 42 45 50 53 54 52 50 48 48 49 49 48 48 50 49 45
38 39 39 39 39 39 40 40 41 41 41 42 42 43 44 45 45 46 47 48 49 50 52 53 54 54 55 56 56 57 57 58 58 58 58 57 56 55 55 54 53 52 51 49 46 45 42 40 40 40 39 39 39 38 36 35 34 33 33 34 36 40 43 44 43 41 38 37 38 38 41 45 49 51 53 52 49 48 49 49 49 49 50 48 43
38 39 39 39 39 39 40 40 40 40 41 42 44 45 46 47 48 49 50 51 52 53 54 55 56 58 58 59 60 60 60 60 61 61 61 61 60 59 57 56 54 53 52 51 49 47 44 41 40 41 40 39 39 39 38 36 35 33 33 34 36 37 39 40 42 43 39 36 37 39 40 42 45 49 51 51 50 49 50 50 51 50 47 46 46
38 38 38 38 38 38 39 39 40 41 43 44 45 46 48 49 50 50 51 52 53 54 55 56 57 58 59 60 61 62 62 62 62 62 62 63 63 62 60 58 57 55 53 52 51 49 47 44 41 41 42 41 40 40 39 38 36 34 33 34 36 37 38 40 41 42 38 34 35 39 41 43 46 49 50 51 51 52 52 51 52 52 48 47 48
36 36 36 36 37 38 39 40 41 43 44 45 46 46 47 48 48 49 50 51 52 53 54 56 57 58 59 60 61 62 63 63 63 63 62 62 63 63 63 61 59 57 55 53 52 50 48 46 43 41 42 42 41 40 40 39 38 36 34 34 35 36 37 40 42 43 41 36 34 38 42 44 46 48 49 51 52 52 52 51 51 51 50 50 50
34 34 35 36 37 38 39 41 42 43 44 44 44 44 45 46 46 47 49 50 51 52 53 54 55 56 58 59 60 62 63 63 64 64 63 63 62 62 62 62 60 59 57 55 53 51 49 48 45 42 43 44 43 41 41 40 39 38 36 35 35 35 36 37 40 43 43 39 35 36 40 43 46 48 49 50 52 52 51 50 50 50 50 51 52
34 34 35 36 37 38 39 40 40 40 40 41 41 42 43 43 44 45 46 46 47 48 49 50 51 52 53 54 56 58 59 61 62 63 64 64 63 62 62 61 60 59 57 56 54 52 50 48 47 44 43 44 44 43 42 41 40 39 38 36 34 36 35 34 35 39 42 40 36 35 37 41 44 47 46 47 49 51 50 49 49 51 52 53 54
33 34 34 35 36 37 37 37 37 37 38 38 38 39 39 40 40 41 41 42 43 44 45 46 47 48 49 50 51 52 54 55 57 58 60 61 62 62 62 61 60 59 57 56 54 53 51 49 48 46 44 44 45 44 43 42 41 40 39 37 35 35 34 33 32 34 38 40 35 32 33 35 38 42 43 42 45 47 48 48 49 51 53 54 55
32 33 34 34 34 34 34 34 34 34 35 35 35 35 35 36 36 37 38 39 40 41 42 44 45 46 47 48 49 50 50 51 52 53 54 56 57 59 60 60 60 59 57 56 54 53 52 50 49 47 46 45 46 46 44 44 42 41 40 39 37 35 34 33 31 31 35 39 36 31 30 30 31 36 40 41 42 44 46 47 49 52 54 55 56
31 31 32 31 31 31 31 31 32 32 32 32 32 33 33 34 34 35 36 37 38 39 41 42 44 46 47 48 49 50 50 49 49 49 49 50 51 53 55 56 57 57 57 56 54 52 51 50 49 48 48 47 47 47 46 45 44 42 41 40 38 36 34 33 32 31 30 32 33 31 30 29 28 31 36 40 42 44 46 47 50 53 54 55 55
29 29 29 29 28 28 29 29 30 30 31 31 31 31 32 33 34 35 36 37 38 39 40 41 43 45 47 49 51 52 52 50 48 46 45 45 46 47 49 50 52 53 54 54 54 53 51 49 48 48 49 48 48 48 47 46 45 43 42 41 39 38 35 33 33 31 28 28 30 30 29 29 29 29 31 35 39 43 45 47 49 51 53 52 51
27 26 26 26 26 27 28 28 29 29 29 29 30 31 32 34 35 35 36 36 37 38 38 40 42 44 46 49 52 53 53 51 48 45 43 42 41 41 43 44 46 48 50 51 52 52 51 49 47 47 48 49 49 49 48 47 46 45 43 42 40 39 37 35 33 32 30 28 29 29 29 30 31 31 32 34 37 40 42 43 44 45 47 48 47
24 24 24 24 25 26 27 28 28 28 28 29 30 31 32 34 34 35 35 36 36 37 38 39 41 43 46 49 52 54 53 50 47 45 43 41 39 37 38 39 40 42 44 46 48 50 50 49 47 47 47 48 49 49 49 48 47 46 44 43 41 39 38 36 34 34 33 30 27 26 26 28 31 32 34 36 38 40 40 41 42 42 42 43 45
21 22 23 24 25 26 26 26 26 27 27 28 29 31 32 33 34 34 35 35 36 36 37 39 41 43 45 48 52 54 53 48 45 44 43 42 39 37 35 36 36 37 38 40 43 46 48 48 47 46 46 47 48 49 49 48 47 47 46 44 42 40 38 38 36 35 35 33 29 26 25 28 31 33 35 37 39 38 38 40 42 42 42 42 43
20 22 23 24 24 25 25 25 25 25 26 27 28 30 31 32 33 34 34 35 35 36 37 38 40 42 45 48 51 54 53 47 43 42 41 39 37 36 34 34 34 35 35 35 37 40 44 46 47 46 46 46 46 47 48 47 47 47 46 45 44 41 39 38 38 37 36 34 32 29 27 28 32 35 36 37 38 36 34 35 37 39 39 40 41
21 22 23 23 24 24 24 24 24 24 25 26 28 29 30 32 33 33 34 34 35 36 37 38 40 42 45 47 51 54 52 47 43 41 39 36 34 32 31 31 31 32 33 32 33 35 39 43 45 46 46 45 45 45 46 46 46 46 45 45 45 44 42 40 38 38 38 36 34 32 30 28 30 35 37 39 40 38 36 34 35 36 38 39 40
21 22 22 23 23 23 23 23 23 23 24 25 27 28 30 32 32 33 34 35 35 36 37 38 40 43 45 47 50 53 52 48 44 43 42 38 34 31 28 27 26 28 29 30 31 31 34 38 42 44 45 46 45 45 45 44 44 45 45 44 45 45 44 41 39 40 41 39 36 34 32 29 29 31 34 38 41 41 41 40 38 37 37 38 40
22 22 22 22 22 22 22 22 22 22 23 25 27 28 30 31 32 33 34 35 36 36 37 38 40 43 45 47 50 53 54 50 47 46 44 40 36 33 30 27 25 23 24 26 28 29 31 34 38 41 44 45 45 45 44 44 43 43 43 43 43 44 44 42 41 41 41 39 38 36 34 32 30 29 30 32 35 37 39 41 41 41 40 40 41
21 21 21 22 22 21 21 21 21 22 23 24 26 28 29 31 32 34 35 35 36 36 37 38 40 42 45 47 49 53 54 52 48 47 45 41 37 34 32 29 26 23 22 22 24 26 29 31 34 38 41 43 44 44 44 44 43 42 42 42 41 42 43 43 41 41 41 40 39 39 37 34 31 30 29 29 31 33 34 37 40 43 43 42 42
20 20 21 21 21 21 21 21 21 21 22 24 26 27 29 30 32 34 35 35 36 36 37 38 40 42 44 46 48 51 53 52 48 47 46 42 37 34 32 30 27 24 21 20 20 22 25 28 31 34 37 40 41 42 43 43 42 41 41 41 40 40 41 42 41 41 41 40 41 42 42 39 35 32 30 28 28 30 32 33 36 40 43 43 42
19 19 19 20 20 20 20 20 20 20 21 23 25 27 28 30 32 33 35 35 36 36 37 38 40 42 44 46 47 49 52 52 50 48 47 44 40 35 33 31 29 26 23 20 18 18 20 23 26 30 33 36 38 39 40 41 41 40 40 40 40 40 40 40 40 41 41 42 42 43 44 43 40 36 33 31 31 31 31 31 32 34 36 39 40
17 18 18 19 19 18 18 18 18 19 21 22 24 26 28 29 31 33 34 35 36 36 37 38 39 41 43 45 47 48 50 52 51 48 47 46 43 38 34 33 32 29 27 23 19 17 17 19 21 25 28 31 34 36 37 38 38 38 38 38 39 39 39 39 39 39 40 41 42 42 43 43 42 39 36 34 34 35 35 34 33 33 34 35 36
16 16 17 17 17 17 17 17 17 19 20 22 24 26 27 29 31 32 34 35 36 36 37 37 39 40 42 44 46 47 49 51 51 49 47 47 45 41 36 33 32 31 28 25 21 18 16 16 17 20 23 26 29 32 33 34 34 35 35 35 35 35 36 37 38 38 39 39 40 41 42 42 42 41 39 37 38 38 38 37 37 37 37 37 38
14 15 15 15 15 15 15 16 18 19 21 23 24 26 27 29 30 32 33 35 36 36 36 37 38 39 41 43 44 45 47 49 51 51 49 47 47 44 39 34 33 31 29 26 22 19 16 15 15 16 18 20 24 27 29 30 31 32 33 33 32 31 31 31 33 35 37 38 40 41 42 42 41 41 40 40 42 43 43 41 40 40 40 41 43
13 14 14 14 14 14 15 17 18 21 23 24 25 26 27 28 30 31 33 34 35 36 36 36 36 38 40 41 43 44 46 47 50 51 50 49 48 46 42 37 34 33 31 28 24 20 17 15 13 13 14 16 19 21 24 25 27 28 29 31 32 33 32 30 30 32 33 35 37 39 41 42 42 42 42 43 44 45 45 44 42 41 42 43 45
13 13 14 14 14 14 15 17 19 21 23 25 25 26 27 29 30 31 33 34 35 35 35 35 36 37 39 40 42 44 45 46 48 50 50 49 48 47 45 40 36 34 33 31 27 22 18 15 13 12 12 13 15 17 19 21 23 25 26 28 30 32 33 33 33 33 32 33 34 36 37 38 40 41 43 44 45 45 45 44 44 44 44 46 47
13 14 14 14 14 14 15 17 19 21 22 24 25 26 27 28 30 31 32 33 34 35 35 35 36 36 37 39 41 43 44 45 46 47 49 50 49 48 47 43 39 36 35 33 30 25 20 17 14 13 11 11 12 13 15 17 19 21 23 25 27 29 31 33 34 34 34 34 34 35 36 37 38 39 41 43 44 45 46 46 46 47 48 48 49
13 14 15 14 14 15 16 17 19 21 22 24 24 25 27 28 29 30 31 32 34 35 35 36 36 36 36 38 39 41 43 44 45 46 48 49 49 49 48 46 42 38 36 35 32 28 23 19 16 14 12 11 10 11 12 14 16 18 19 21 24 26 28 30 32 33 34 34 35 36 38 39 40 40 41 42 43 44 45 46 47 48 48 48 48
14 15 15 15 15 16 17 18 20 21 23 24 25 26 27 28 29 30 31 32 34 35 35 36 36 36 36 37 38 40 41 42 44 45 46 48 49 49 48 47 44 40 37 36 34 31 26 22 18 15 14 12 11 10 10 12 13 15 16 18 21 24 26 27 29 30 32 33 33 34 35 37 39 41 42 43 44 44 44 45 45 45 45 45 45
14 15 15 15 15 16 18 19 21 22 23 24 25 26 27 28 29 30 31 32 34 35 35 36 36 36 36 36 36 38 39 41 42 44 45 46 48 49 48 47 46 43 39 36 34 32 29 25 21 18 15 14 13 12 11 11 11 12 14 15 17 20 23 25 26 27 29 30 30 30 31 32 34 36 38 40 41 42 43 43 43 42 42 42 42
15 16 16 16 16 18 19 20 22 23 23 24 26 27 28 29 29 30 31 32 33 34 35 35 35 36 35 35 35 36 38 39 41 42 43 44 45 47 48 47 46 45 42 39 36 33 31 28 24 21 18 16 14 13 12 11 11 11 12 13 14 16 19 22 24 25 25 26 27 28 28 28 28 29 31 33 35 37 38 39 40 40 40 40 40
16 16 16 16 17 18 19 20 22 23 24 25 26 27 28 29 30 30 31 32 33 33 34 35 35 35 35 35 35 35 36 37 39 40 41 42 43 44 46 47 46 45 44 42 38 35 32 30 26 23 20 18 16 14 13 12 12 11 11 12 12 13 15 18 20 22 23 24 24 25 25 26 26 26 26 27 29 30 32 33 34 36 37 37 38
15 16 16 16 17 18 19 21 22 24 25 26 27 27 28 29 30 30 31 32 33 33 34 34 34 34 34 34 35 35 35 36 37 38 39 40 41 42 43 45 45 45 44 43 40 37 34 31 28 25 22 20 18 16 15 13 12 12 12 12 12 12 13 15 17 19 21 22 23 23 23 23 24 24 24 25 25 26 27 28 29 30 31 32 33
15 15 16 17 17 18 20 21 22 24 25 26 27 28 29 29 29 30 31 32 33 33 33 33 34 34 34 34 34 34 34 35 35 36 37 38 39 40 41 42 43 44 44 43 42 39 36 33 30 27 24 21 19 18 17 15 13 12 12 12 12 12 12 14 15 16 18 19 20 21 22 22 22 22 23 23 23 23 24 25 26 26 26 27 28
15 15 16 17 18 19 21 22 23 24 26 27 28 28 29 29 30 30 31 32 32 32 33 33 33 33 33 33 33 33 34 34 34 35 36 37 38 39 39 40 41 42 43 43 42 41 38 35 32 29 26 24 21 19 18 17 16 14 13 12 12 12 12 13 14 15 16 17 18 19 21 22 22 22 22 22 22 22 22 23 24 24 25 25 25
15 16 16 18 19 20 21 23 24 25 26 27 28 29 29 30 30 31 31 31 32 32 32 32 32 32 33 33 33 33 33 33 33 34 34 35 36 37 37 38 38 39 41 42 42 41 40 37 34 31 28 26 24 22 20 18 17 16 15 14 13 13 13 13 14 15 15 16 17 18 19 20 21 22 22 22 22 22 22 22 22 22 23 24 24
17 17 18 19 20 21 22 23 24 25 26 28 28 29 30 31 31 31 31 31 32 32 32 32 32 32 32 33 33 33 33 33 33 33 33 34 34 35 36 36 37 37 38 39 40 40 40 39 37 34 31 28 26 25 23 20 19 18 17 16 15 14 13 13 14 14 15 15 16 17 17 18 20 21 21 22 22 21 21 21 21 21 22 22 23
19 19 20 20 21 22 23 24 25 26 27 28 29 30 31 31 32 33 32 32 32 32 32 32 32 32 32 32 32 32 32 32 33 33 32 33 33 34 34 35 35 36 36 37 37 38 38 38 38 36 34 31 29 26 25 23 21 19 18 17 16 15 15 14 14 14 14 15 15 16 17 18 18 19 20 21 21 22 22 22 22 21 21 21 21
19 20 21 22 23 24 24 25 25 26 27 28 29 30 30 31 32 33 33 33 33 33 32 32 31 31 31 31 32 32 32 32 33 32 32 32 32 33 33 33 34 34 35 35 35 36 36 36 37 36 35 33 31 29 27 25 23 22 20 19 18 17 16 16 15 15 14 15 15 15 16 17 18 18 19 20 20 21 22 22 22 22 22 22 21
Wind_Direction
281 284 285 286 287 287 287 287 289 291 292 291 291 291 291 290 290 289 289 288 287 286 286 285 285 285 286 287 287 287 286 285 285 285 287 289 290 291 291 293 295 296 299 302 303 303 305 304 297 287 281 278 273 267 264 262 259 255 251 248 247 246 245 246 248 247 245 242 238 234 231 226 225 226 226 227 230 229 226 227 228 229 229 230 231
282 285 287 288 288 288 289 290 291 293 293 293 293 292 291 290 289 289 288 287 287 286 285 285 285 285 286 287 287 287 286 285 284 284 285 286 288 289 290 291 292 294 296 299 301 302 303 304 302 294 283 278 276 270 265 262 260 256 252 249 247 245 244 244 245 246 247 248 244 237 233 228 224 225 225 227 229 227 226 228 229 229 228 228 231
282 284 287 288 289 289 291 292 293 293 293 293 293 293 292 290 289 288 287 286 286 285 285 284 284 284 285 285 286 286 286 285 285 284 284 284 284 286 287 288 289 291 293 295 298 300 301 302 302 300 292 282 277 272 265 260 259 257 252 249 246 245 245 244 244 243 243 247 245 239 233 228 225 225 225 227 228 227 226 228 230 230 228 227 230
281 284 286 287 289 290 292 293 294 294 295 295 294 293 292 291 289 288 287 286 285 285 284 284 283 284 284 284 284 284 284 285 285 285 284 283 282 282 284 285 287 288 290 292 294 296 298 299 299 300 299 291 280 272 266 262 258 256 252 248 246 244 245 244 244 243 241 243 243 238 234 230 226 227 227 227 228 227 228 230 231 231 230 230 232
281 283 285 287 289 291 292 293 293 295 296 295 294 293 291 290 289 288 287 286 285 284 284 284 284 284 284 284 284 284 284 285 285 286 286 284 283 282 282 283 284 286 288 290 292 293 294 296 297 297 299 297 287 274 268 263 258 254 248 246 246 244 244 244 245 247 246 243 241 238 235 232 228 229 230 229 227 226 227 230 232 232 232 233 235
280 282 284 286 289 290 291 292 294 295 295 294 293 291 290 289 288 288 287 286 286 285 285 284 284 284 285 285 285 285 285 285 286 286 286 286 285 284 282 282 282 284 286 287 289 290 291 292 294 294 295 297 293 280 270 263 259 254 247 248 251 246 245 248 246 247 250 246 242 240 238 233 229 230 231 229 227 225 225 225 227 231 233 233 236
278 281 283 286 287 289 290 293 294 294 293 292 291 289 289 288 288 288 288 287 287 287 286 286 286 286 286 286 285 285 286 286 286 286 287 286 286 285 284 283 282 282 283 285 286 287 288 289 291 292 292 294 295 287 273 264 262 258 252 255 259 248 242 248 249 249 251 248 245 245 241 234 228 229 229 227 225 225 224 223 224 228 232 233 235
278 280 283 285 286 289 291 293 294 293 292 290 289 289 289 288 288 288 288 288 288 288 288 287 287 287 286 286 286 286 286 286 286 286 287 287 287 286 286 285 284 283 281 282 283 283 285 287 289 290 289 291 293 291 280 266 263 263 257 257 262 252 238 242 251 255 253 250 251 249 243 235 228 227 228 226 226 225 223 223 226 229 231 233 235
279 281 283 285 288 290 292 292 292 291 291 290 290 290 290 289 289 288 288 288 288 288 288 288 287 287 287 286 286 286 286 286 286 286 286 286 287 287 287 286 286 285 282 281 281 281 282 284 286 286 286 287 288 290 287 273 263 263 260 255 256 255 244 239 248 255 254 253 254 251 243 236 230 228 227 226 227 228 225 225 230 231 231 233 236
279 282 284 287 289 290 291 291 290 291 291 291 292 292 292 291 290 289 288 288 288 288 288 288 288 288 287 287 287 286 286 286 286 286 286 286 286 286 286 286 285 285 283 281 280 279 280 282 282 282 283 283 284 286 288 281 268 263 261 255 249 247 243 239 243 249 251 253 255 249 239 232 229 228 228 226 226 229 229 228 231 232 230 231 236
281 284 286 288 289 289 289 290 291 292 292 293 293 293 293 293 292 291 290 290 289 289 289 288 288 288 287 287 287 286 286 285 285 285 285 285 285 285 285 285 284 284 283 282 280 278 278 279 279 279 279 280 281 282 285 285 275 266 261 256 249 244 245 246 245 245 244 247 251 249 239 231 227 227 227 227 226 227 229 228 229 232 231 229 235
284 285 286 286 287 288 289 291 292 294 294 295 295 295 294 294 293 293 292 292 291 290 290 289 289 288 288 287 287 287 286 285 284 284 284 284 284 284 284 284 284 283 282 281 280 278 276 276 277 277 276 277 278 279 281 284 280 270 262 257 251 248 250 253 255 251 245 242 246 249 242 232 228 227 227 228 228 228 231 231 228 230 231 231 236
284 284 285 285 287 289 291 293 294 295 296 296 296 296 295 295 295 294 294 293 293 292 292 291 290 290 289 288 288 287 287 286 285 284 283 283 282 283 283 283 283 282 282 280 279 277 275 273 273 275 274 274 275 275 277 280 279 272 264 258 253 252 253 255 256 257 254 248 246 248 244 234 229 228 227 228 228 230 234 234 229 226 229 232 236
283 284 286 287 289 291 293 294 295 295 295 295 296 296 296 296 296 296 296 295 295 294 293 292 292 291 290 289 288 288 287 286 286 285 284 283 282 281 281 282 281 281 281 280 278 277 275 271 270 271 272 271 272 273 272 274 276 273 267 260 254 254 255 255 254 256 258 255 248 245 245 238 231 229 228 228 228 230 233 235 231 228 230 234 237
285 287 288 290 291 292 294 294 295 295 296 296 297 297 298 298 298 297 297 296 295 294 293 292 291 290 289 288 287 286 286 285 285 284 284 283 282 281 280 280 280 279 279 279 278 276 274 272 268 267 269 269 269 270 269 270 272 273 268 261 254 252 252 252 253 255 258 256 247 242 243 241 235 232 231 231 229 229 231 234 234 233 233 234 235
287 289 290 292 293 294 295 295 296 297 297 298 298 298 299 299 298 298 297 296 296 295 294 293 292 291 289 288 287 286 284 283 283 282 282 281 280 280 279 278 278 277 277 277 276 275 273 271 268 265 265 266 266 266 267 266 268 270 270 263 256 252 250 250 250 252 255 255 247 239 239 240 237 234 234 233 231 229 230 232 235 235 233 231 232
289 290 292 294 295 296 297 297 298 299 299 299 299 299 299 299 299 299 298 298 297 296 295 294 293 292 291 289 288 287 285 284 282 281 280 279 278 278 277 276 276 275 275 274 273 273 271 270 267 264 262 263 263 263 264 264 265 267 269 266 258 251 249 250 250 249 251 254 249 239 236 238 237 234 234 233 230 229 230 231 234 235 232 229 229
290 292 293 295 296 297 298 299 299 300 300 300 300 300 300 301 301 301 300 300 299 298 297 296 295 294 293 291 289 288 286 284 283 281 279 278 277 276 275 274 273 272 272 271 271 270 269 268 266 263 260 260 261 261 261 262 262 263 266 266 261 254 251 250 251 250 248 251 253 246 238 236 235 233 233 231 228 228 231 231 232 233 232 230 230
292 294 295 297 298 298 299 299 299 300 300 301 301 302 303 303 304 304 304 304 304 304 303 302 301 300 298 296 294 292 289 286 284 281 279 277 275 274 273 272 271 270 269 268 267 267 266 265 264 261 259 258 258 258 258 259 260 261 262 265 264 261 257 253 252 252 248 247 253 253 244 238 235 232 230 229 228 229 231 231 231 232 231 231 232
294 295 296 297 298 298 299 299 300 300 301 303 304 305 306 307 308 310 311 311 312 312 312 312 311 309 308 306 303 300 296 293 288 284 281 278 275 273 271 270 269 269 267 265 264 263 263 261 260 259 257 256 256 256 256 256 258 259 260 262 263 263 261 256 252 252 247 243 247 253 249 245 241 233 227 226 228 231 232 232 232 233 232 232 234
295 296 296 297 298 298 299 300 301 302 304 305 307 308 310 312 313 315 317 317 318 319 320 320 320 319 318 316 314 311 307 302 297 291 286 281 277 273 270 267 266 266 265 264 262 260 259 258 257 256 254 253 254 254 254 254 256 257 258 260 261 262 261 258 253 250 245 242 245 251 252 251 247 237 230 227 228 232 234 234 232 233 234 235 237
295 296 296 297 298 299 300 301 302 304 305 307 309 311 313 315 317 318 319 320 321 322 324 325 325 325 325 324 323 321 317 312 306 299 293 287 282 277 272 268 264 262 261 261 261 259 257 255 254 253 252 251 251 252 252 252 253 254 256 258 259 259 260 258 253 248 242 238 240 243 245 247 247 242 236 234 234 235 236 236 234 234 235 238 239
295 296 296 297 298 299 300 302 304 306 307 309 311 314 316 318 319 320 321 322 323 325 326 327 328 329 329 330 330 328 325 321 314 307 301 295 289 283 278 272 267 262 258 257 257 257 256 253 251 249 249 248 249 250 251 250 250 251 253 255 256 257 258 257 254 249 242 237 236 235 236 238 240 240 239 238 239 239 239 239 238 237 238 239 239
295 295 295 296 298 299 301 304 306 308 310 312 314 316 319 321 322 323 323 324 325 327 328 329 330 331 332 333 334 333 331 326 320 315 309 303 297 291 285 278 272 266 260 255 253 252 253 252 249 247 245 245 246 248 249 249 248 249 250 251 253 254 255 255 255 252 248 243 238 234 232 233 235 235 234 235 237 238 237 237 237 237 237 238 239
293 293 294 296 299 302 304 306 308 310 312 315 318 321 323 325 326 327 327 328 328 329 329 331 332 333 334 335 336 337 335 330 324 320 316 311 305 299 292 285 278 272 265 259 253 249 248 249 248 245 244 243 243 245 246 247 247 246 247 248 251 252 252 253 254 253 251 249 242 234 232 233 235 234 231 231 234 235 232 232 234 235 235 237 238
290 292 295 298 300 303 306 308 310 313 317 321 324 326 328 329 330 331 331 331 331 331 332 333 335 336 336 337 339 340 339 334 328 324 321 316 311 305 298 291 284 277 271 264 256 250 245 244 244 243 242 241 241 242 243 244 245 245 245 245 247 250 250 250 251 252 252 252 245 236 232 232 233 234 232 230 232 233 231 231 233 234 235 235 235
289 292 296 299 302 304 306 308 312 317 321 325 328 330 331 332 332 333 334 333 334 334 334 336 337 338 339 340 342 343 342 338 334 331 326 320 313 307 300 294 288 282 275 268 261 253 246 242 241 240 240 240 239 240 241 242 242 243 243 243 243 245 246 246 247 248 249 250 247 240 235 233 231 231 231 231 231 230 228 228 231 232 233 232 232
290 293 297 300 303 305 308 310 315 319 324 327 329 330 332 333 334 335 336 336 336 336 336 338 339 340 341 342 344 346 345 342 338 337 333 327 320 312 304 296 289 283 278 272 265 257 249 243 239 238 237 238 238 239 239 240 240 241 242 242 241 242 243 243 244 244 245 247 247 243 240 240 237 233 231 231 232 230 227 225 225 227 230 231 231
291 294 297 300 303 306 310 313 317 321 324 327 329 331 333 334 335 337 338 338 339 339 339 340 341 342 343 344 346 348 348 346 345 344 342 338 333 326 318 308 297 287 279 274 268 261 253 246 241 238 236 236 236 237 238 238 238 239 240 241 241 241 242 242 241 242 243 244 245 244 243 243 242 238 235 234 234 233 230 227 224 225 227 230 231
292 295 298 301 304 308 311 314 318 322 325 327 329 333 334 335 337 339 340 341 341 341 340 342 344 345 346 346 348 350 352 351 350 350 348 344 340 338 333 326 315 301 287 276 269 263 257 250 244 240 237 235 235 235 237 238 238 238 238 239 240 240 241 241 240 240 242 242 242 244 245 242 237 235 236 237 238 238 235 232 230 229 230 231 232
293 296 300 303 306 310 313 316 319 323 326 329 332 334 336 337 340 342 343 343 343 343 342 343 345 347 348 348 350 353 355 354 353 353 352 348 344 342 341 337 330 319 303 287 274 266 260 254 249 244 240 238 236 235 236 237 237 237 238 238 239 239 240 241 240 239 240 240 238 240 244 244 240 237 237 238 241 243 242 238 235 234 233 231 231
295 299 303 306 309 312 315 318 321 324 329 332 333 334 337 340 343 345 346 345 345 344 345 345 346 348 349 350 351 354 357 357 355 355 355 352 348 345 344 343 339 332 319 302 285 273 265 259 253 248 244 241 239 237 236 236 237 237 238 238 238 238 239 240 240 239 238 238 237 237 240 244 245 243 240 238 241 245 246 243 240 237 235 233 232
298 302 306 308 311 314 317 319 322 327 331 333 333 335 339 343 345 346 347 347 347 347 347 346 347 349 350 351 352 355 358 359 358 357 357 356 353 350 348 347 346 343 336 322 303 286 273 264 259 253 248 245 243 241 239 238 237 237 238 239 239 238 238 239 240 239 238 238 237 237 239 242 244 244 241 239 239 241 242 242 241 240 240 240 239
302 306 309 310 313 316 318 320 325 329 332 333 335 338 341 343 346 347 348 348 349 350 349 347 348 349 351 352 354 355 357 360 0 359 358 358 357 353 351 350 350 349 346 338 323 305 288 275 265 258 252 248 246 244 242 240 239 238 238 239 241 241 240 239 239 239 239 239 239 239 239 241 242 243 241 239 239 239 238 238 240 242 244 244 245
308 311 312 314 317 318 320 324 329 331 332 334 338 341 342 344 346 347 348 349 350 350 349 348 348 349 351 353 355 355 357 359 1 1 1 0 359 357 354 353 353 351 348 344 336 321 305 289 275 265 257 252 249 248 246 243 240 238 237 238 240 242 243 243 241 239 238 238 238 239 240 240 241 242 240 238 237 238 240 242 244 245 245 244 243
314 315 316 318 321 323 326 330 332 332 334 338 342 342 343 344 346 347 349 350 350 350 350 349 348 350 352 354 355 355 356 359 1 3 3 2 1 360 357 354 354 353 351 349 344 334 320 306 291 276 265 256 252 250 249 246 243 239 236 234 234 235 238 242 243 243 241 239 238 238 239 239 239 240 240 239 238 238 239 241 243 244 245 244 243
318 320 322 324 327 331 334 334 335 335 338 340 341 342 343 345 346 348 349 349 349 350 350 350 349 350 352 353 354 355 357 358 1 4 4 3 3 2 360 357 356 356 355 352 349 343 334 321 308 292 276 263 255 251 251 249 246 241 237 232 230 229 229 232 238 243 243 242 241 240 239 239 237 237 237 239 240 240 240 240 240 242 243 243 243
324 327 329 329 331 337 339 338 338 340 340 339 339 342 344 346 347 348 349 348 348 349 350 351 350 350 351 352 354 355 357 359 1 3 5 5 4 4 3 1 359 359 359 357 353 349 342 333 322 310 293 276 263 254 251 250 248 245 240 235 231 230 229 229 231 235 238 240 241 242 241 241 240 239 237 238 241 243 243 244 244 244 244 243 243
330 331 332 332 334 339 341 339 339 340 339 338 339 342 345 346 348 349 349 348 347 349 350 352 352 351 351 352 353 355 357 358 360 2 4 6 6 6 5 4 2 1 1 1 358 354 349 342 333 324 312 296 279 265 256 251 249 247 246 241 236 233 232 231 231 231 232 234 236 239 240 240 241 241 240 240 242 243 245 246 246 246 245 244 245
331 332 333 334 335 337 338 338 338 339 339 338 340 342 344 345 347 348 349 348 348 349 351 352 352 351 351 352 353 355 356 358 359 0 3 6 7 7 7 6 5 3 3 3 2 359 355 349 342 335 328 317 301 284 269 258 251 248 247 244 239 235 234 234 233 234 234 234 234 235 236 237 237 238 239 240 241 242 243 244 245 246 246 246 247
330 331 332 332 333 334 334 335 336 337 338 339 340 341 343 344 347 348 349 349 349 349 351 351 351 352 352 352 353 354 355 356 358 360 1 4 7 8 9 8 7 6 5 5 5 3 360 356 351 345 339 333 323 308 290 274 261 252 248 246 242 239 237 237 237 237 237 238 238 238 237 237 237 237 237 238 238 239 240 242 243 245 246 247 247
328 329 329 331 332 333 332 332 333 335 337 339 340 340 341 343 345 347 349 350 349 350 350 350 351 351 352 351 352 353 354 356 358 359 0 2 5 8 9 9 9 8 7 7 7 6 3 0 357 353 348 343 337 329 316 299 282 267 257 251 248 244 242 241 242 241 240 241 242 242 242 241 240 239 239 239 240 240 241 241 242 243 244 246 246
327 328 329 332 334 333 332 332 332 334 337 339 339 339 340 341 343 346 348 349 350 350 349 350 350 351 351 351 351 352 354 355 357 359 0 1 3 6 9 10 10 10 9 8 9 9 7 4 1 358 355 350 345 340 333 322 307 291 275 264 257 252 248 246 245 245 245 245 245 245 246 245 244 243 242 242 242 243 243 244 244 244 244 245 245
326 327 330 334 336 334 333 334 334 335 337 339 338 338 339 340 341 344 346 348 349 350 349 349 349 350 350 350 351 352 353 355 356 359 0 0 1 4 7 9 10 11 10 10 9 9 9 8 4 1 358 355 351 346 341 335 327 316 301 285 273 265 259 254 250 248 248 248 247 247 248 248 248 247 246 244 243 243 243 244 245 245 245 245 245
328 329 333 337 338 337 336 337 336 336 337 338 337 338 338 339 340 342 344 346 347 349 349 349 348 349 349 350 350 351 353 354 355 357 359 360 1 2 4 7 10 11 11 11 10 9 9 9 7 4 0 356 353 350 346 341 336 330 321 309 295 282 272 266 260 255 251 249 249 249 248 248 249 249 249 248 247 245 244 244 244 244 245 246 246
330 333 337 338 338 339 339 338 338 338 338 338 338 338 338 338 340 342 343 344 345 346 347 348 348 348 349 350 350 350 351 353 354 356 357 359 360 1 3 5 8 9 11 12 12 11 9 8 8 7 4 359 354 350 347 344 340 335 329 322 314 302 290 280 272 265 259 255 253 251 250 248 248 248 249 249 248 248 248 247 245 244 244 245 245
332 336 337 336 337 338 339 339 340 340 340 339 339 339 338 339 340 341 343 343 343 344 346 347 348 348 348 349 349 350 350 352 353 354 356 358 359 360 1 3 5 7 9 11 12 12 11 10 8 6 5 2 358 352 347 345 342 338 333 327 322 316 308 297 287 278 271 265 260 257 254 251 249 248 248 248 248 249 249 250 249 248 247 246 245
330 334 334 334 335 336 338 339 340 340 340 340 340 339 339 339 340 341 342 342 342 343 344 346 347 347 347 348 349 349 350 350 351 353 355 356 357 358 359 1 2 5 7 9 11 12 12 11 10 7 5 3 0 356 351 346 342 339 335 330 325 320 316 310 302 293 285 277 270 266 263 259 256 253 251 250 249 249 249 250 250 250 250 249 248
325 328 330 330 331 333 335 337 338 339 339 340 340 340 340 340 340 341 342 341 341 342 343 344 345 347 347 348 348 348 348 349 350 352 354 355 356 357 358 359 360 1 4 6 9 11 11 11 11 9 7 4 1 358 355 350 345 340 336 332 327 321 317 314 310 305 299 291 283 276 270 267 264 261 258 257 255 253 252 251 251 250 251 251 251
319 322 324 325 327 328 331 333 335 336 337 337 338 339 340 341 340 340 340 340 340 340 342 343 344 346 346 346 347 347 348 348 348 350 352 354 354 355 356 357 358 359 0 2 5 8 10 10 10 10 8 6 3 360 357 354 349 344 337 332 328 323 318 313 310 307 305 301 295 288 280 275 270 267 264 263 261 259 258 257 255 253 252 252 252
313 316 319 321 323 324 327 329 331 332 332 333 335 337 339 340 340 339 339 338 339 339 340 342 343 344 345 345 346 347 348 348 347 348 350 352 353 353 354 356 357 357 357 358 1 4 7 8 8 8 8 7 5 2 359 355 352 349 343 336 330 324 320 316 311 307 304 302 299 295 290 284 278 274 270 267 265 263 262 260 259 256 254 253 253
Height
5784 5784 5783 5782 5781 5780 5779 5779 5778 5778 5776 5775 5774 5773 5772 5771 5769 5768 5766 5765 5764 5763 5762 5761 5760 5759 5758 5757 5756 5755 5754 5753 5753 5752 5752 5750 5749 5748 5746 5745 5744 5742 5741 5739 5736 5735 5734 5732 5730 5728 5726 5726 5725 5725 5726 5727 5727 5727 5727 5728 5728 5729 5730 5730 5731 5733 5734 5734 5736 5737 5738 5742 5744 5746 5747 5748 5749 5751 5753 5754 5755 5757 5758 5758 5759
5781 5780 5779 5778 5777 5776 5775 5775 5774 5773 5772 5771 5770 5769 5767 5766 5765 5763 5762 5760 5759 5758 5757 5756 5755 5754 5753 5752 5751 5750 5749 5749 5748 5748 5747 5746 5745 5743 5742 5741 5740 5738 5737 5735 5733 5731 5730 5728 5726 5724 5722 5721 5721 5720 5721 5722 5721 5722 5722 5723 5723 5724 5725 5725 5726 5728 5730 5730 5731 5732 5733 5736 5739 5740 5742 5744 5745 5747 5750 5751 5752 5753 5754 5754 5755
5777 5777 5776 5774 5773 5772 5771 5770 5770 5769 5767 5766 5765 5764 5762 5761 5760 5758 5757 5755 5754 5753 5752 5751 5750 5749 5748 5747 5746 5745 5744 5743 5743 5743 5742 5741 5740 5739 5737 5736 5735 5733 5732 5730 5729 5727 5726 5724 5723 5720 5718 5717 5716 5716 5716 5716 5716 5716 5717 5717 5718 5719 5720 5720 5721 5722 5724 5725 5725 5726 5728 5731 5734 5735 5738 5739 5739 5742 5745 5747 5749 5749 5750 5751 5751
5774 5773 5772 5770 5769 5768 5767 5766 5765 5764 5763 5762 5760 5759 5757 5756 5754 5753 5752 5750 5749 5748 5747 5746 5745 5744 5742 5741 5741 5740 5739 5738 5737 5737 5737 5736 5735 5734 5732 5731 5730 5728 5727 5726 5724 5723 5721 5720 5718 5716 5714 5712 5711 5711 5710 5711 5711 5711 5711 5711 5712 5713 5714 5714 5715 5716 5718 5719 5720 5721 5724 5726 5728 5730 5733 5734 5734 5738 5742 5743 5744 5746 5746 5747 5747
5770 5769 5768 5767 5765 5764 5763 5762 5761 5760 5758 5757 5755 5754 5752 5751 5749 5747 5746 5745 5744 5743 5742 5741 5740 5738 5737 5736 5735 5734 5734 5733 5732 5731 5731 5730 5729 5729 5728 5726 5725 5723 5722 5721 5719 5718 5717 5716 5714 5712 5710 5708 5706 5706 5705 5705 5705 5705 5705 5705 5706 5707 5707 5709 5710 5710 5711 5713 5715 5717 5718 5719 5722 5726 5728 5729 5731 5735 5738 5738 5739 5741 5742 5742 5743
5766 5765 5764 5763 5761 5760 5759 5758 5756 5755 5754 5752 5751 5749 5747 5746 5744 5743 5741 5740 5738 5737 5736 5735 5734 5733 5732 5730 5729 5728 5728 5727 5726 5726 5725 5724 5723 5722 5722 5721 5720 5718 5717 5715 5714 5713 5712 5711 5710 5708 5706 5704 5702 5701 5700 5699 5698 5699 5699 5700 5701 5702 5702 5703 5704 5705 5706 5708 5709 5711 5712 5714 5718 5721 5723 5724 5727 5730 5732 5732 5733 5734 5736 5738 5738
5762 5761 5760 5759 5757 5756 5754 5753 5752 5751 5749 5748 5746 5745 5743 5741 5740 5738 5737 5735 5733 5732 5731 5730 5729 5727 5726 5725 5724 5723 5722 5721 5720 5720 5719 5718 5717 5716 5715 5715 5714 5713 5712 5710 5709 5708 5707 5706 5705 5703 5702 5700 5698 5696 5695 5693 5692 5693 5694 5694 5695 5697 5698 5698 5699 5700 5701 5703 5704 5705 5707 5709 5712 5714 5717 5719 5721 5723 5724 5726 5728 5729 5731 5733 5734
5758 5757 5756 5755 5753 5751 5750 5749 5747 5746 5744 5743 5742 5740 5738 5737 5735 5734 5732 5731 5729 5727 5725 5724 5723 5722 5720 5719 5718 5717 5716 5715 5714 5713 5713 5712 5711 5710 5708 5708 5708 5707 5706 5705 5704 5703 5702 5701 5700 5699 5697 5695 5693 5691 5690 5688 5687 5688 5689 5688 5689 5691 5692 5693 5694 5694 5696 5698 5699 5700 5702 5704 5706 5708 5710 5712 5714 5716 5719 5721 5723 5725 5727 5728 5729
5754 5753 5752 5750 5749 5747 5746 5745 5743 5741 5740 5738 5737 5735 5733 5732 5730 5729 5727 5726 5724 5722 5720 5719 5717 5716 5715 5713 5712 5710 5709 5708 5707 5707 5706 5705 5704 5703 5702 5701 5701 5700 5700 5699 5698 5697 5697 5696 5695 5693 5692 5690 5689 5687 5685 5683 5682 5682 5683 5683 5684 5684 5685 5687 5689 5689 5690 5692 5693 5693 5695 5697 5700 5702 5704 5706 5709 5713 5716 5717 5719 5720 5722 5723 5723
5749 5748 5748 5746 5744 5743 5742 5740 5739 5737 5735 5733 5732 5730 5728 5726 5725 5723 5722 5721 5719 5717 5715 5713 5711 5710 5708 5707 5705 5704 5703 5701 5700 5699 5699 5698 5698 5697 5696 5695 5694 5693 5693 5693 5692 5691 5691 5690 5689 5688 5686 5685 5683 5682 5681 5679 5677 5676 5677 5677 5678 5679 5679 5682 5684 5684 5685 5686 5686 5687 5688 5690 5693 5696 5698 5701 5705 5708 5710 5712 5714 5715 5717 5718 5717
5745 5744 5743 5742 5740 5739 5737 5736 5734 5732 5730 5728 5726 5725 5723 5721 5719 5718 5716 5715 5713 5711 5709 5708 5706 5704 5702 5700 5698 5697 5696 5694 5693 5692 5691 5690 5690 5689 5688 5688 5687 5686 5686 5686 5686 5685 5685 5684 5683 5682 5681 5679 5678 5677 5676 5675 5673 5671 5671 5671 5672 5672 5673 5675 5677 5678 5679 5680 5680 5680 5680 5683 5686 5689 5692 5695 5698 5701 5703 5705 5708 5710 5711 5712 5713
5741 5740 5739 5738 5736 5735 5733 5731 5729 5727 5725 5723 5721 5720 5718 5716 5714 5712 5711 5709 5707 5705 5703 5702 5700 5698 5696 5694 5692 5690 5688 5687 5686 5685 5684 5683 5682 5681 5680 5680 5679 5679 5679 5679 5678 5678 5678 5678 5676 5676 5675 5674 5673 5672 5671 5670 5668 5667 5666 5665 5666 5666 5667 5669 5671 5672 5672 5673 5674 5674 5675 5678 5681 5684 5687 5689 5692 5695 5697 5699 5702 5704 5705 5706 5708
5737 5736 5735 5733 5732 5730 5729 5727 5724 5722 5720 5718 5716 5715 5713 5711 5709 5707 5706 5704 5702 5700 5698 5695 5693 5692 5690 5688 5685 5683 5681 5679 5678 5677 5676 5675 5674 5673 5672 5672 5671 5671 5671 5671 5671 5671 5671 5671 5671 5669 5668 5668 5667 5666 5666 5665 5663 5662 5661 5661 5661 5661 5662 5663 5665 5666 5667 5667 5668 5669 5670 5672 5675 5678 5681 5683 5686 5689 5691 5693 5696 5698 5698 5700 5703
5733 5731 5730 5729 5728 5726 5724 5722 5720 5717 5716 5714 5712 5710 5708 5706 5704 5702 5701 5698 5696 5694 5692 5689 5687 5684 5682 5681 5679 5677 5674 5672 5670 5669 5667 5667 5666 5665 5664 5664 5663 5663 5662 5662 5663 5663 5663 5664 5664 5663 5662 5661 5661 5660 5660 5660 5658 5657 5657 5656 5656 5657 5657 5659 5660 5661 5661 5662 5662 5664 5665 5666 5669 5672 5675 5677 5680 5684 5685 5688 5691 5692 5694 5698 5701
5729 5727 5725 5724 5723 5721 5719 5717 5715 5713 5711 5709 5707 5705 5703 5701 5699 5697 5695 5692 5690 5688 5685 5683 5680 5677 5675 5673 5671 5669 5667 5665 5663 5661 5659 5658 5657 5656 5656 5656 5655 5655 5654 5654 5654 5655 5655 5656 5656 5657 5656 5655 5655 5654 5654 5654 5653 5653 5652 5651 5651 5651 5653 5654 5654 5654 5655 5656 5657 5659 5660 5662 5664 5666 5668 5671 5675 5678 5680 5683 5686 5687 5690 5693 5694
5725 5723 5721 5719 5718 5716 5714 5712 5710 5709 5707 5705 5703 5700 5698 5696 5693 5691 5688 5686 5684 5681 5678 5676 5673 5670 5667 5665 5662 5660 5658 5656 5655 5653 5651 5649 5647 5647 5647 5647 5646 5646 5646 5646 5646 5646 5647 5648 5648 5649 5649 5648 5648 5648 5648 5648 5648 5647 5647 5647 5646 5646 5647 5647 5647 5648 5649 5651 5652 5653 5655 5656 5658 5660 5662 5665 5669 5671 5673 5676 5678 5680 5683 5685 5686
5720 5719 5717 5715 5714 5712 5710 5708 5706 5704 5702 5700 5698 5695 5693 5690 5688 5685 5682 5680 5677 5674 5671 5668 5665 5662 5659 5656 5653 5650 5648 5646 5645 5643 5641 5640 5638 5637 5636 5637 5637 5637 5637 5637 5637 5637 5638 5639 5640 5641 5641 5641 5641 5641 5641 5642 5642 5642 5641 5641 5641 5641 5641 5640 5641 5642 5644 5645 5646 5648 5649 5651 5652 5654 5656 5658 5661 5664 5666 5669 5671 5673 5676 5678 5680
5716 5715 5713 5711 5709 5708 5706 5703 5701 5699 5697 5695 5692 5690 5688 5685 5682 5679 5676 5674 5671 5668 5664 5661 5658 5655 5651 5648 5644 5641 5638 5636 5634 5633 5631 5630 5629 5627 5626 5626 5627 5627 5628 5628 5629 5629 5629 5630 5632 5633 5633 5634 5634 5634 5635 5635 5635 5636 5636 5636 5636 5635 5635 5635 5636 5637 5638 5640 5641 5642 5643 5645 5646 5648 5650 5652 5654 5657 5660 5663 5666 5667 5669 5673 5675
5712 5711 5709 5707 5705 5704 5702 5700 5697 5695 5693 5690 5688 5685 5683 5680 5677 5674 5670 5667 5664 5661 5657 5654 5651 5647 5643 5640 5636 5632 5629 5626 5623 5621 5620 5619 5618 5617 5616 5616 5616 5617 5618 5618 5619 5620 5620 5621 5623 5624 5625 5626 5627 5627 5628 5628 5629 5629 5630 5630 5630 5629 5629 5629 5630 5631 5632 5634 5635 5636 5637 5638 5639 5641 5644 5646 5648 5651 5654 5657 5659 5661 5663 5666 5668
5708 5707 5705 5703 5701 5699 5698 5696 5693 5691 5689 5686 5683 5681 5678 5675 5672 5668 5665 5662 5658 5655 5651 5647 5644 5640 5636 5632 5628 5624 5620 5616 5613 5610 5608 5607 5606 5605 5605 5605 5605 5606 5607 5608 5609 5610 5611 5612 5614 5615 5617 5618 5619 5620 5620 5621 5622 5623 5624 5625 5625 5624 5624 5624 5625 5625 5626 5628 5630 5630 5631 5632 5633 5636 5638 5641 5643 5646 5649 5651 5653 5655 5657 5660 5661
5704 5703 5701 5699 5697 5696 5694 5692 5689 5687 5685 5682 5679 5676 5674 5671 5668 5665 5661 5657 5654 5650 5646 5642 5638 5634 5630 5625 5621 5617 5612 5608 5604 5600 5598 5595 5594 5593 5593 5594 5594 5595 5596 5597 5599 5601 5602 5603 5605 5606 5608 5610 5611 5612 5613 5614 5615 5616 5617 5618 5619 5619 5619 5619 5620 5620 5621 5623 5624 5626 5626 5627 5629 5630 5633 5636 5639 5641 5643 5645 5647 5649 5651 5653 5655
5700 5699 5697 5696 5694 5692 5690 5688 5686 5683 5681 5679 5676 5673 5670 5667 5664 5661 5657 5654 5650 5646 5642 5638 5633 5629 5625 5620 5615 5610 5605 5600 5596 5592 5588 5586 5583 5582 5581 5581 5582 5584 5585 5587 5588 5590 5592 5594 5595 5597 5599 5601 5603 5604 5606 5607 5608 5609 5611 5612 5613 5614 5614 5615 5615 5615 5616 5618 5619 5621 5622 5623 5625 5626 5628 5631 5633 5636 5637 5639 5641 5643 5645 5647 5649
5696 5695 5694 5692 5691 5689 5687 5685 5682 5680 5677 5675 5673 5670 5666 5664 5661 5657 5654 5650 5646 5643 5639 5634 5630 5625 5621 5616 5611 5605 5599 5594 5589 5584 5580 5577 5575 5572 5571 5570 5571 5572 5574 5576 5578 5580 5582 5584 5586 5588 5590 5592 5594 5596 5598 5599 5601 5603 5604 5605 5607 5608 5609 5610 5610 5610 5611 5612 5613 5615 5616 5618 5620 5622 5624 5626 5628 5630 5632 5633 5635 5637 5638 5640 5642
5693 5692 5691 5689 5687 5686 5684 5681 5679 5676 5674 5672 5669 5667 5663 5660 5657 5654 5650 5647 5643 5639 5636 5631 5626 5622 5617 5612 5607 5601 5594 5588 5582 5578 5574 5570 5567 5565 5562 5561 5561 5562 5563 5565 5567 5569 5572 5574 5577 5579 5581 5583 5586 5588 5590 5592 5594 5595 5597 5599 5600 5601 5603 5604 5605 5605 5605 5606 5607 5609 5611 5613 5615 5617 5619 5621 5623 5625 5626 5628 5629 5631 5632 5634 5636
5690 5689 5688 5686 5685 5683 5680 5678 5676 5673 5671 5668 5666 5663 5660 5657 5654 5651 5647 5643 5640 5636 5632 5628 5623 5619 5614 5609 5603 5597 5590 5583 5577 5572 5568 5564 5561 5559 5556 5554 5553 5553 5553 5555 5557 5560 5562 5565 5567 5570 5572 5575 5577 5580 5582 5584 5586 5588 5590 5592 5594 5595 5597 5599 5600 5600 5600 5601 5602 5604 5606 5608 5610 5611 5613 5615 5617 5619 5620 5622 5624 5625 5627 5629 5630
5688 5686 5685 5684 5682 5680 5678 5675 5673 5670 5668 5665 5663 5660 5657 5654 5651 5648 5644 5640 5637 5633 5629 5625 5620 5615 5610 5605 5600 5593 5587 5580 5574 5568 5563 5559 5555 5553 5550 5547 5546 5545 5545 5546 5548 5550 5553 5555 5558 5561 5564 5566 5569 5571 5574 5576 5578 5580 5583 5585 5587 5589 5591 5593 5594 5595 5595 5596 5597 5599 5601 5603 5605 5606 5607 5609 5611 5612 5614 5616 5618 5620 5622 5624 5625
5686 5684 5682 5681 5679 5677 5675 5673 5670 5668 5665 5662 5660 5658 5655 5651 5648 5645 5641 5637 5634 5630 5627 5623 5618 5613 5608 5602 5597 5590 5584 5577 5571 5566 5560 5555 5550 5547 5545 5542 5540 5539 5538 5539 5540 5542 5544 5546 5549 5552 5555 5558 5561 5563 5566 5568 5571 5573 5576 5578 5581 5583 5584 5586 5588 5590 5590 5591 5593 5594 5595 5597 5599 5601 5602 5604 5605 5606 5608 5610 5613 5614 5616 5619 5621
5683 5682 5680 5678 5676 5675 5673 5670 5668 5666 5663 5660 5658 5655 5652 5649 5646 5643 5639 5635 5631 5627 5624 5620 5615 5610 5605 5600 5594 5588 5581 5575 5569 5564 5558 5552 5547 5543 5540 5538 5535 5533 5532 5532 5533 5535 5536 5538 5541 5543 5546 5550 5552 5555 5558 5561 5563 5566 5568 5571 5573 5576 5577 5580 5582 5584 5585 5586 5588 5589 5590 5592 5594 5596 5597 5599 5600 5601 5603 5605 5607 5609 5611 5613 5615
5681 5679 5678 5676 5674 5672 5670 5668 5666 5663 5661 5658 5656 5653 5650 5647 5643 5640 5636 5632 5628 5624 5620 5617 5612 5607 5602 5597 5592 5586 5579 5573 5566 5560 5554 5548 5544 5540 5536 5534 5531 5529 5528 5527 5528 5528 5530 5531 5533 5536 5538 5541 5544 5547 5550 5553 5556 5558 5561 5563 5566 5568 5570 5573 5575 5577 5579 5581 5583 5584 5586 5587 5589 5590 5592 5593 5595 5596 5598 5600 5602 5603 5605 5607 5609
5678 5676 5675 5674 5672 5670 5668 5666 5664 5662 5659 5656 5653 5651 5648 5644 5641 5637 5634 5630 5626 5622 5618 5614 5610 5605 5600 5594 5589 5583 5575 5568 5562 5557 5551 5546 5541 5537 5533 5530 5528 5525 5524 5523 5523 5523 5524 5525 5527 5529 5531 5534 5537 5540 5543 5546 5548 5551 5554 5556 5559 5561 5563 5566 5569 5570 5572 5575 5577 5579 5580 5582 5583 5584 5586 5588 5590 5591 5593 5595 5597 5598 5600 5601 5603
5675 5674 5672 5671 5669 5667 5665 5663 5662 5659 5657 5654 5651 5648 5645 5642 5638 5635 5631 5627 5623 5619 5615 5611 5607 5603 5598 5592 5587 5580 5573 5567 5561 5556 5550 5545 5540 5536 5532 5529 5525 5523 5521 5520 5519 5519 5519 5520 5521 5523 5525 5527 5530 5532 5535 5538 5541 5544 5547 5549 5552 5554 5557 5559 5561 5564 5566 5568 5571 5572 5574 5576 5577 5579 5580 5582 5584 5586 5588 5590 5592 5593 5594 5596 5597
5673 5671 5670 5668 5667 5665 5663 5661 5659 5657 5654 5652 5649 5646 5643 5640 5636 5632 5629 5625 5621 5617 5613 5609 5605 5601 5597 5591 5586 5580 5574 5568 5561 5555 5550 5544 5540 5535 5531 5527 5524 5521 5519 5517 5516 5515 5515 5516 5516 5517 5519 5521 5523 5526 5529 5531 5534 5537 5540 5542 5545 5548 5550 5552 5555 5557 5559 5562 5564 5566 5567 5569 5571 5573 5575 5576 5578 5580 5581 5583 5585 5587 5588 5590 5591
5671 5669 5667 5666 5664 5662 5661 5659 5657 5655 5652 5650 5647 5644 5641 5637 5634 5630 5627 5623 5619 5615 5611 5607 5603 5599 5595 5590 5585 5579 5574 5568 5561 5555 5549 5544 5539 5535 5530 5527 5523 5520 5517 5515 5513 5512 5512 5512 5512 5513 5514 5516 5518 5520 5522 5525 5528 5530 5533 5536 5538 5541 5544 5546 5548 5550 5553 5555 5557 5559 5561 5563 5565 5567 5569 5571 5573 5574 5576 5578 5579 5581 5583 5584 5586
5668 5667 5665 5663 5662 5660 5658 5657 5655 5653 5651 5648 5645 5642 5639 5635 5632 5628 5625 5621 5617 5614 5610 5606 5602 5598 5594 5589 5584 5578 5573 5568 5562 5556 5550 5544 5538 5534 5530 5526 5522 5519 5516 5514 5512 5510 5509 5509 5509 5509 5510 5512 5513 5515 5517 5519 5522 5525 5527 5530 5532 5534 5537 5539 5542 5544 5546 5548 5551 5553 5555 5557 5559 5561 5563 5565 5567 5569 5571 5572 5574 5575 5577 5578 5580
5666 5664 5663 5661 5660 5658 5656 5655 5653 5651 5649 5646 5644 5640 5637 5634 5630 5627 5623 5619 5615 5612 5609 5605 5601 5597 5593 5588 5583 5578 5573 5568 5562 5556 5550 5545 5539 5534 5529 5525 5522 5519 5516 5513 5511 5509 5508 5507 5506 5506 5507 5508 5509 5510 5512 5514 5517 5519 5522 5525 5527 5529 5531 5533 5536 5538 5540 5542 5544 5546 5548 5551 5553 5555 5557 5559 5561 5563 5565 5566 5567 5569 5571 5572 5573
5664 5662 5661 5659 5658 5656 5654 5652 5651 5649 5646 5644 5642 5639 5635 5632 5629 5625 5622 5618 5614 5611 5607 5603 5599 5595 5591 5587 5583 5578 5573 5568 5562 5557 5551 5545 5540 5534 5530 5526 5523 5519 5516 5513 5510 5508 5506 5505 5504 5504 5504 5505 5505 5507 5508 5510 5512 5514 5517 5519 5522 5524 5526 5528 5530 5532 5534 5536 5538 5540 5542 5544 5547 5549 5551 5553 5555 5556 5558 5559 5561 5562 5564 5565 5567
5662 5660 5659 5657 5656 5654 5652 5650 5649 5646 5644 5642 5639 5637 5634 5631 5627 5624 5620 5616 5613 5610 5606 5602 5598 5594 5590 5586 5582 5578 5573 5568 5562 5556 5551 5546 5540 5535 5530 5526 5522 5519 5515 5512 5509 5507 5505 5504 5503 5502 5502 5502 5502 5504 5505 5506 5508 5510 5512 5515 5517 5520 5522 5524 5525 5527 5528 5530 5532 5534 5536 5538 5540 5543 5545 5547 5549 5550 5551 5553 5554 5555 5557 5559 5560
5660 5659 5657 5656 5654 5652 5651 5649 5647 5645 5642 5640 5637 5635 5632 5629 5626 5622 5619 5615 5612 5609 5605 5601 5597 5593 5589 5585 5581 5577 5572 5568 5562 5557 5552 5547 5542 5537 5531 5527 5522 5519 5515 5512 5509 5506 5504 5503 5501 5501 5500 5500 5501 5501 5502 5503 5505 5506 5508 5511 5513 5515 5517 5519 5521 5523 5524 5525 5526 5528 5530 5532 5534 5536 5539 5540 5542 5543 5545 5546 5547 5549 5551 5552 5554
5659 5657 5656 5654 5652 5651 5649 5648 5646 5643 5641 5639 5636 5633 5631 5628 5625 5622 5618 5614 5611 5607 5604 5600 5596 5592 5589 5585 5580 5576 5572 5568 5564 5559 5554 5549 5543 5538 5532 5527 5523 5519 5515 5512 5509 5506 5504 5502 5501 5500 5499 5499 5499 5500 5500 5501 5502 5504 5505 5507 5509 5511 5513 5514 5516 5518 5519 5520 5522 5523 5525 5527 5529 5531 5532 5534 5536 5537 5539 5540 5541 5543 5544 5546 5548
5657 5655 5654 5653 5651 5649 5648 5646 5644 5642 5640 5637 5635 5632 5630 5627 5624 5621 5617 5614 5610 5606 5603 5599 5595 5592 5588 5584 5580 5576 5572 5568 5564 5560 5555 5550 5545 5539 5534 5529 5524 5520 5516 5512 5509 5506 5504 5502 5501 5500 5499 5499 5499 5499 5499 5499 5500 5501 5503 5504 5505 5507 5508 5510 5511 5513 5514 5515 5517 5519 5520 5522 5523 5525 5526 5528 5530 5531 5533 5534 5535 5536 5538 5540 5541
5656 5654 5653 5651 5649 5648 5646 5645 5643 5641 5638 5636 5633 5631 5628 5626 5623 5620 5616 5612 5608 5605 5601 5598 5594 5591 5587 5583 5580 5576 5572 5568 5564 5560 5555 5551 5546 5541 5536 5531 5526 5522 5518 5514 5510 5507 5505 5503 5501 5500 5499 5498 5498 5498 5498 5498 5498 5499 5500 5501 5502 5503 5505 5506 5507 5508 5509 5511 5512 5514 5515 5516 5518 5519 5521 5522 5524 5525 5527 5528 5529 5530 5532 5533 5535
5654 5653 5651 5650 5648 5646 5644 5643 5641 5639 5637 5634 5631 5629 5626 5624 5621 5618 5615 5611 5607 5603 5600 5597 5593 5590 5586 5583 5579 5576 5572 5568 5564 5560 5555 5551 5547 5542 5537 5533 5528 5524 5520 5516 5512 5509 5506 5503 5502 5501 5500 5499 5498 5497 5497 5497 5497 5497 5498 5499 5499 5500 5501 5502 5503 5504 5505 5507 5508 5509 5510 5511 5512 5514 5515 5517 5518 5520 5521 5522 5523 5524 5526 5527 5529
5652 5651 5650 5648 5646 5644 5643 5641 5639 5637 5635 5632 5630 5627 5624 5622 5619 5616 5613 5610 5607 5603 5599 5596 5592 5589 5586 5582 5579 5576 5572 5568 5564 5560 5556 5552 5547 5543 5539 5534 5530 5525 5521 5517 5514 5511 5507 5505 5503 5501 5500 5499 5498 5497 5497 5496 5496 5496 5497 5497 5498 5498 5498 5499 5500 5501 5502 5503 5504 5505 5506 5507 5508 5509 5510 5512 5513 5514 5516 5516 5517 5518 5520 5521 5523
5650 5649 5648 5646 5645 5643 5641 5639 5637 5635 5633 5630 5628 5625 5623 5620 5617 5615 5612 5609 5605 5602 5598 5595 5592 5588 5585 5582 5579 5575 5572 5568 5564 5560 5556 5552 5548 5544 5540 5536 5532 5527 5523 5519 5515 5512 5509 5507 5504 5502 5501 5500 5499 5498 5497 5496 5496 5495 5495 5496 5496 5496 5496 5497 5497 5498 5499 5500 5501 5502 5503 5504 5505 5506 5507 5507 5508 5509 5510 5511 5512 5513 5514 5516 5517
5649 5647 5645 5644 5643 5641 5640 5638 5635 5633 5631 5629 5626 5624 5621 5618 5616 5613 5610 5607 5604 5601 5598 5594 5591 5588 5585 5581 5578 5575 5571 5568 5564 5560 5557 5553 5549 5545 5541 5537 5533 5529 5525 5521 5517 5514 5511 5509 5506 5504 5502 5500 5499 5498 5497 5496 5496 5495 5495 5494 5495 5495 5495 5495 5495 5496 5497 5498 5498 5499 5500 5501 5502 5503 5503 5504 5505 5505 5506 5507 5507 5508 5510 5511 5512
5647 5645 5644 5642 5641 5640 5638 5636 5634 5631 5629 5627 5624 5622 5619 5617 5614 5611 5608 5605 5603 5600 5597 5593 5590 5587 5584 5581 5577 5574 5571 5567 5564 5561 5557 5554 5550 5546 5542 5539 5535 5531 5527 5523 5520 5516 5513 5510 5508 5505 5503 5501 5500 5498 5497 5496 5496 5495 5494 5494 5493 5493 5493 5493 5493 5494 5494 5495 5496 5497 5498 5498 5499 5500 5500 5501 5502 5502 5503 5503 5504 5505 5506 5507 5508
5645 5644 5642 5641 5639 5638 5636 5634 5632 5629 5627 5625 5622 5620 5617 5615 5612 5609 5607 5604 5601 5598 5596 5592 5589 5586 5583 5580 5577 5573 5570 5567 5564 5560 5557 5554 5550 5547 5543 5540 5536 5532 5529 5525 5521 5518 5515 5512 5509 5507 5504 5502 5501 5499 5498 5496 5495 5495 5494 5493 5493 5493 5492 5492 5491 5492 5492 5493 5494 5494 5495 5495 5496 5497 5497 5498 5499 5499 5500 5500 5501 5502 5503 5504 5504
5643 5642 5641 5639 5637 5636 5634 5632 5630 5628 5625 5623 5621 5618 5615 5612 5610 5607 5605 5602 5599 5597 5594 5591 5588 5585 5582 5579 5576 5572 5569 5566 5563 5560 5557 5553 5550 5547 5544 5540 5537 5533 5530 5526 5523 5520 5516 5513 5511 5508 5505 5503 5501 5500 5498 5497 5495 5494 5494 5493 5492 5492 5491 5491 5490 5490 5490 5491 5491 5492 5492 5492 5493 5494 5495 5495 5496 5496 5497 5497 5498 5499 5500 5501 5501
5641 5640 5639 5637 5635 5634 5632 5630 5628 5626 5624 5621 5619 5616 5613 5610 5608 5605 5603 5600 5598 5595 5592 5589 5587 5584 5581 5578 5574 5571 5568 5565 5563 5560 5556 5553 5550 5547 5544 5541 5537 5534 5531 5528 5524 5521 5518 5515 5512 5509 5507 5504 5502 5500 5498 5497 5495 5494 5493 5492 5492 5491 5491 5490 5490 5489 5489 5489 5489 5489 5489 5490 5490 5491 5492 5492 5492 5493 5493 5494 5495 5496 5497 5497 5498
5638 5637 5636 5635 5633 5632 5630 5628 5626 5624 5622 5620 5617 5614 5612 5609 5606 5603 5600 5598 5596 5593 5591 5588 5585 5582 5579 5576 5574 5571 5567 5564 5561 5559 5556 5553 5550 5547 5544 5541 5537 5534 5531 5528 5526 5522 5519 5516 5513 5510 5508 5505 5503 5501 5499 5497 5495 5494 5493 5492 5491 5490 5489 5489 5489 5488 5488 5487 5487 5487 5487 5487 5487 5488 5488 5489 5490 5490 5490 5491 5491 5492 5493 5494 5494
5636 5635 5633 5632 5630 5629 5627 5625 5624 5622 5620 5618 5616 5613 5610 5607 5604 5601 5598 5596 5593 5591 5588 5586 5584 5581 5578 5575 5572 5569 5566 5563 5560 5557 5555 5552 5549 5546 5543 5541 5538 5534 5531 5528 5526 5523 5520 5517 5514 5512 5509 5506 5504 5501 5499 5497 5496 5494 5492 5491 5490 5489 5488 5488 5487 5487 5486 5486 5485 5485 5485 5485 5485 5485 5486 5486 5487 5487 5487 5488 5488 5488 5489 5490 5490